Regional Weather Roundup
Issued by NWS

Home | Current Version | Previous Version | Text Only | Print | Product List | Glossary Off
Versions: 1 2 3 4 5 6 7 8 9 10 11 12 13 14 15 16 17 18 19 20 21 22 23 24 25 26 27 28 29 30 31 32 33 34 35 36 37 38 39 40 41 42 43 44 45 46 47 48 49 50

000
ASUS43 KLSX 202159
RWRMO

WEATHER SUMMARY FOR MISSOURI
NATIONAL WEATHER SERVICE SPRINGFIELD MO
400 PM CST THU NOV 20 2014

NOTE: "FAIR" INDICATES FEW OR NO CLOUDS BELOW 12,000 FEET WITH NO
       SIGNIFICANT WEATHER AND/OR OBSTRUCTIONS TO VISIBILITY.
       CURRENT SKY AND/OR WEATHER CONDITIONS ARE NOT AVAILABLE FOR
       CHILLICOTHE AND FARMINGTON.

MOZ001>031-035>038-043-044-053-054-202300-
...NORTHERN AND WESTERN MISSOURI...

CITY           SKY/WX    TMP DP  RH WIND       PRES   REMARKS
KANSAS CTY INT PTCLDY    38  19  46 NE5       30.19S
KANSAS C DTWN  CLEAR     41  18  39 N5        30.19S
LEE`S SUMMIT   CLEAR     39  19  44 E5        30.19S
ST JOSEPH      CLEAR     35  18  49 N8        30.21S WCI  29
CHILLICOTHE      N/A     36  17  46 NW3       30.22R
KIRKSVILLE     CLEAR     32  16  51 NW7       30.20R WCI  26

$$
MOZ066>068-077>081-088>096-101>105-202300-
...SOUTHWEST MISSOURI...

CITY           SKY/WX    TMP DP  RH WIND       PRES   REMARKS
SPRINGFIELD    CLEAR     50  22  33 NE8       30.12S
JOPLIN         SUNNY     49  25  39 NE12      30.12R

$$
MOZ032>034-039>042-045>050-055>058-069>072-202300-
...CENTRAL MISSOURI...

CITY           SKY/WX    TMP DP  RH WIND       PRES   REMARKS
COLUMBIA       CLOUDY    40  19  43 N6        30.19F
JEFFERSON CITY CLEAR     41  19  41 NW5       30.21S
ROLLA          CLEAR     41  20  43 NW3       30.17S
SEDALIA        CLEAR     41  18  39 CALM      30.20S
WARRENSBURG    CLEAR     37  19  48 N3        30.20S
OSAGE BEACH    CLEAR     43  19  39 E7        30.18S

$$
MOZ051-052-059>065-202300-
...EAST CENTRAL MISSOURI...

CITY           SKY/WX    TMP DP  RH WIND       PRES   REMARKS
ST LOUIS INTL  PTCLDY    38  18  44 W7        30.22R
SPIRIT OF STL  PTCLDY    37  19  48 CALM      30.21R
ST CHARLES     PTCLDY    36  18  48 W8        30.22R WCI  30

$$
MOZ072>076-082>087-097>100-106>115-202300-
...SOUTH CENTRAL AND SOUTHEAST MISSOURI...

CITY           SKY/WX    TMP DP  RH WIND       PRES   REMARKS
CAPE GIRARDEAU CLEAR     42  24  49 SW3       30.22F
FARMINGTON     CLEAR     45  21  39 W7        30.20R
POPLAR BLUFF   CLEAR     44  23  43 E5        30.20S
WEST PLAINS    CLEAR     48  20  32 SE5       30.16R

$$


USA.gov is the U.S. government's official web portal to all federal, state and local government web resources and services.